Location: *
(49.5667°N, 1.3667°W)
Time: 13:44:28
(UTC+00:00)

Resurs 01 Rocket - Pass Details

Date: 20 September 2019
Orbit: 635 x 644 km, 98.0° (Epoch: 16 October)

Event Time Altitude Azimuth Distance (km) Brightness Sun altitude
Exits shadow 21:30:37 21° 255° (WSW) 1,448 3.7 -30.3°
Maximum altitude 21:31:18 22° 268° (W) 1,421 3.7 -30.4°
Drops below altitude 10° 21:34:45 10° 319° (NW) 2,048 5.1 -30.8°
Sets 21:37:25 0° 335° (NNW) 2,965 6.1 -31.1°
